ATLAS 5 CENTAUR DEB, 53516

Orbit data source: Space-Track

ATLAS 5 CENTAUR DEB, 53516 is space debris in HEO originally from a launch on Wed, 17 Sep 2014 UTC launched from the Air Force Eastern Test Range (AFETR). Debris objects in space refer to the collection of defunct objects orbiting the Earth. Examples of debris include non-operational satellites, rocket bodies, and fragments generated from explosions, collisions, or faulty payload assembly.

Loading next visibility...
Identifier
53516, 2014-055DP
Orbit
HEO
Country
Flag of USUS
Related business
Flag of USUnited Launch Alliance/Lockheed Martin (US)
Manufacturer
Unknown
Mission
Spacecraft
Bus & Motor
Unknown
Mass
Unknown
Launch date (UTC)
2014-09-17 (12 years ago)
Launch vehicle
Unknown
Launch site
Air Force Eastern Test Range (AFETR)
Object type
Payload
Rocket body
Debris
Shape & HBR
Unknown shape, 1.1 m
Radar Cross Section
Small (<0.1 m²)

Expand to show TLE details & history
Last TLE update: 4 days ago

TLE from 4 days ago
0 ATLAS 5 CENTAUR DEB
1 53516U 14055DP  26115.90811676 -.00000001  00000-0  00000-0 0  9990
2 53516  19.6004 160.7892 4777181 132.8759 278.6524  1.82545272 25125
Epoch: 2026-04-25T21:47Z
TLE epoch observation values (Epoch: 2026-04-25T21:47:41.288Z)
Latitude
-0.00003°
Longitude
-19.98622°
Altitude
25,937.321 km
Speed
3.252 km/s
True Right ascension
10h 43m 25s
True Declination
0° 00' 00"
Sunlit
Object was in daylight at epoch
Visualization orbit readout
Latitude
Unknown
Longitude
Unknown
Altitude
Unknown
Speed
Unknown
Apparent Right ascension
Unknown
Apparent Declination
Unknown
Sunlit
N/A
Visualization observer readout
Local Sidereal Time
09:32:35
Azimuth
Unknown
Elevation
Unknown
Doppler factor
Unknown
Orbital elements
Apogee altitude
35,415.416 km
Perigee altitude
8,393.298 km
Semi-major axis
28,282.494 km
Eccentricity
0.47772
Inclination
19.6004°
RAAN
160.7892°
Arg. of periapsis
132.8759°
True anomaly
227.13801°
Mean anomaly
278.6524°
Eccentric anomaly
252.54197°
Mean motion
0.45632 °/min
Orbital period
788.93 mins
BSTAR
0
Loading maneuver chart data...
Computing Atmospheric mass density...

Documentation

Showing up to 5 results
|